Location: Palomar Mountain Lodge
(33.3110°N, 116.8495°W)
Time: 08:17:06
(UTC-07:00)

Cosmos 1603 - Pass Details

Date: 14 June 2018
Orbit: 830 x 861 km, 71.0° (Epoch: 19 August)

Event Time Altitude Azimuth Distance (km) Brightness Sun altitude
Rises 21:38:18 0° 340° (NNW) 3,412 8.0 -17.6°
Reaches altitude 10° 21:40:45 10° 341° (NNW) 2,478 7.1 -18.0°
Maximum altitude 21:46:28 84° 70° (ENE) 863 3.6 -18.8°
Enters shadow 21:49:11 33° 155° (SSE) 1,405 4.3 -19.2°
